Szolnok, Hungary

1:29 PM CEST on April 25, 2017 (GMT +0200)
Szolnok

Weather History for LHSN - June, 2014

Change the Weather History Date:

Friday, June 6, 2014

  Actual Average (LHBP) Record (LHBP)
Temperature  
Mean Temperature 68 °F -  
Max Temperature 82 °F 74 °F 93 °F (2003)
Min Temperature 55 °F 53 °F 39 °F (2006)
Cooling Degree Days 4    
Growing Degree Days 18 (Base 50)    
Moisture  
Dew Point 56 °F    
Average Humidity 58    
Maximum Humidity 94    
Minimum Humidity 26    
Precipitation  
Precipitation 0.00 in - - ()
Sea Level Pressure  
Sea Level Pressure 30.02 in    
Wind  
Wind Speed 4 mph ()    
Max Wind Speed 7 mph    
Max Gust Speed -    
Visibility 17.9 miles    
Events      
Averages and records for this station are not official NWS values.
T = Trace of Precipitation, MM = Missing Value Source: Averaged Metar Reports

Daily Weather History Graph

Daily Weather History Graph

Search for Another Location

Airport or City:

Trip Planner

Search our weather history database for the weather conditions in past years. The results will help you decide how hot, cold, wet, or windy it might be!

Date:

Astronomy

Jun. 06, 2014 Rise Set
Actual Time 4:44 AM CEST 8:30 PM CEST
Civil Twilight 4:05 AM CEST 9:10 PM CEST
Nautical Twilight 3:12 AM CEST 10:03 PM CEST
Astronomical Twilight 1:57 AM CEST 11:19 PM CEST
Moon 1:06 PM CEST (6/6) 12:55 AM CEST (6/6)
Length of Visible Light 17h 04m
Length of Day
15h 45m
First Quarter, 55% of the Moon is Illuminated
Jun 6
First Quarter
Jun 13
Full
Jun 19
Last Quarter
Jun 27
New
Jul 5
First Quarter

Hourly Weather History & Observations

Time (CEST) Temp. Heat Index Dew Point Humidity Pressure Visibility Wind Dir Wind Speed Gust Speed Precip Events Conditions
12:00 AM 64 °F - 56 °F 67% 30.00 in 19 mi NW 6.7 mph - -   Clear
12:15 AM 64.4 °F - 55.4 °F 73% 30.01 in - NW 4.5 mph - N/A   Clear
12:45 AM 62.6 °F - 55.4 °F 77% 30.01 in - NNW 2.2 mph - N/A   Clear
1:00 AM 63 °F - 56 °F 70% 30.01 in 19 mi NNW 2.2 mph - -   Clear
1:15 AM 60.8 °F - 55.4 °F 82% 30.01 in - North 4.5 mph - N/A   Clear
1:45 AM 60.8 °F - 55.4 °F 82% 30.01 in - North 4.5 mph - N/A   Clear
2:00 AM 63 °F - 58 °F 79% 30.05 in 19 mi NNE 6.7 mph - -  
2:15 AM 60.8 °F - 55.4 °F 82% 30.01 in - North 4.5 mph - N/A   Clear
2:45 AM 59.0 °F - 55.4 °F 88% 30.01 in - WNW 4.5 mph - N/A   Clear
3:00 AM 60 °F - 56 °F 81% 30.01 in 16 mi WNW 4.5 mph - -   Clear
3:15 AM 59.0 °F - 55.4 °F 88% 30.01 in - NNW 2.2 mph - N/A   Clear
3:45 AM 57.2 °F - 55.4 °F 94% 30.01 in - WNW 2.2 mph - N/A   Clear
4:00 AM 58 °F - 55 °F 86% 30.01 in 12 mi WNW 2.2 mph - -   Partly Cloudy
4:45 AM 57.2 °F - 53.6 °F 88% 30.01 in - Calm Calm - N/A   Clear
5:00 AM 57 °F - 54 °F 87% 30.03 in 12 mi Calm Calm - -   Partly Cloudy
5:15 AM 57.2 °F - 53.6 °F 88% 30.01 in - WNW 2.2 mph - N/A   Clear
5:45 AM 59.0 °F - 55.4 °F 88% 30.04 in - WNW 2.2 mph - N/A   Clear
6:00 AM 59 °F - 55 °F 82% 30.04 in 12 mi WNW 2.2 mph - -   Partly Cloudy
6:15 AM 60.8 °F - 57.2 °F 88% 30.04 in - Calm Calm - N/A   Clear
6:45 AM - - - N/A% - - Variable 4.5 mph - N/A   Clear
7:00 AM 64 °F - 56 °F 69% 30.04 in 16 mi NW 2.2 mph - -   Partly Cloudy
7:15 AM 64.4 °F - 57.2 °F 77% 30.04 in - North 2.2 mph - N/A   Clear
7:45 AM 68.0 °F - 57.2 °F 68% 30.04 in - North 4.5 mph - N/A   Clear
8:00 AM 68 °F - 58 °F 61% 30.04 in 19 mi North 4.5 mph - -   Scattered Clouds
8:15 AM 69.8 °F - 59.0 °F 68% 30.04 in - WNW 2.2 mph - N/A   Clear
8:45 AM 71.6 °F - 59.0 °F 64% 30.04 in - NNW 2.2 mph - N/A   Clear
9:00 AM 72 °F - 58 °F 53% 30.04 in 19 mi NNW 2.2 mph - -   Clear
9:15 AM 73.4 °F - 59.0 °F 61% 30.04 in - West 2.2 mph - N/A   Clear
9:45 AM - - - N/A% - - Variable 4.5 mph - N/A   Clear
10:00 AM 74 °F - 58 °F 46% 30.04 in 19 mi NNW 2.2 mph - -  
10:15 AM 75.2 °F - 57.2 °F 53% 30.04 in - NNW 4.5 mph - N/A   Clear
10:45 AM 77.0 °F - 57.2 °F 50% 30.04 in - NW 6.7 mph - N/A   Clear
11:00 AM 76 °F - 57 °F 41% 30.04 in 19 mi NW 6.7 mph - -  
11:15 AM 77.0 °F - 57.2 °F 50% 30.04 in - WSW 6.7 mph - N/A   Clear
11:45 AM 78.8 °F - 57.2 °F 47% 30.04 in - NW 4.5 mph - N/A   Clear
12:00 PM 78 °F - 58 °F 39% 30.04 in 19 mi NW 4.5 mph - -   Scattered Clouds
12:15 PM 78.8 °F - 55.4 °F 44% 30.04 in - NW 4.5 mph - N/A   Clear
12:45 PM 78.8 °F - 57.2 °F 47% 30.04 in - NW 4.5 mph - N/A   Clear
1:00 PM 78 °F - 57 °F 38% 30.03 in 19 mi NW 4.5 mph - -   Partly Cloudy
1:15 PM 80.6 °F 80.5 °F 55.4 °F 42% 30.04 in - WNW 4.5 mph - N/A   Clear
1:45 PM 78.8 °F - 55.4 °F 44% 30.04 in - North 6.7 mph - N/A   Clear
2:00 PM 79 °F - 56 °F 34% 30.02 in 19 mi North 6.7 mph - -   Partly Cloudy
2:15 PM 82.4 °F 81.7 °F 55.4 °F 39% 30.01 in - WNW 4.5 mph - N/A   Clear
2:45 PM 82.4 °F 82.0 °F 57.2 °F 42% 30.01 in - West 4.5 mph - N/A   Clear
3:00 PM 82 °F - 58 °F 34% 30.00 in 19 mi West 4.5 mph - -   Scattered Clouds
3:15 PM 82.4 °F 81.7 °F 55.4 °F 39% 30.01 in - NNW 6.7 mph - N/A   Clear
3:45 PM 82.4 °F 82.0 °F 57.2 °F 42% 30.01 in - North 2.2 mph - N/A   Clear
4:00 PM 83 °F - 57 °F 31% 29.99 in 19 mi North 2.2 mph - -   Scattered Clouds
4:15 PM 82.4 °F 81.7 °F 55.4 °F 39% 30.01 in - NW 4.5 mph - N/A   Clear
4:45 PM 82.4 °F 81.4 °F 53.6 °F 37% 30.01 in - North 4.5 mph - N/A   Clear
5:00 PM 82 °F - 54 °F 28% 29.99 in 19 mi North 4.5 mph - -   Scattered Clouds
5:15 PM 82.4 °F 81.7 °F 55.4 °F 39% 29.98 in - NNE 6.7 mph - N/A   Clear
5:45 PM 82.4 °F 81.4 °F 53.6 °F 37% 29.98 in - North 4.5 mph - N/A   Clear
6:00 PM 83 °F - 54 °F 26% 29.99 in 19 mi North 4.5 mph - -   Scattered Clouds
6:15 PM 82.4 °F - 51.8 °F 35% 29.98 in - WNW 6.7 mph - N/A   Clear
6:45 PM 80.6 °F 80.5 °F 55.4 °F 42% 30.01 in - NNW 4.5 mph - N/A   Clear
7:00 PM 81 °F - 55 °F 30% 29.99 in 19 mi NNW 4.5 mph - -   Scattered Clouds
8:00 PM 78 °F - 56 °F 37% 30.00 in 19 mi NNW 6.7 mph - -   Scattered Clouds
8:15 PM 77.0 °F - 55.4 °F 47% 30.01 in - NW 4.5 mph - N/A   Clear
8:45 PM 75.2 °F - 57.2 °F 53% 30.01 in - NW 2.2 mph - N/A   Clear
9:00 PM 75 °F - 57 °F 43% 30.02 in 19 mi NW 2.2 mph - -   Scattered Clouds
9:15 PM 71.6 °F - 57.2 °F 60% 30.01 in - NNW 2.2 mph - N/A   Clear
9:45 PM - - - N/A% - - NW 4.5 mph - N/A   Clear
10:00 PM 71 °F - 58 °F 55% 30.03 in 19 mi NNW 4.5 mph - -   Clear
10:15 PM 69.8 °F - 59.0 °F 68% 30.04 in - NNW 6.7 mph - N/A   Clear
10:45 PM 69.8 °F - 59.0 °F 68% 30.04 in - NNW 6.7 mph - N/A   Clear
11:00 PM 70 °F - 58 °F 57% 30.04 in 19 mi NNW 6.7 mph - -   Scattered Clouds
11:15 PM 69.8 °F - 59.0 °F 68% 30.04 in - North 6.7 mph - N/A   Clear
11:45 PM 66.2 °F - 59.0 °F 78% 30.04 in - NNW 4.5 mph - N/A   Clear